Wind_Speed
27 28 29 30 29 30 30 29 29 29 28 27 27 28 27 27 28 27 27 27 27 27 27 27 27 27 28 27 27 26 24 25 25 25 25 24 24 25 25 25 25 25 24 25
26 27 28 29 29 29 30 30 29 29 27 27 27 27 27 26 26 26 26 26 26 27 27 27 27 28 28 27 26 26 25 25 25 25 25 25 25 25 25 25 25 25 25 25
24 26 27 28 27 27 27 28 29 28 26 26 26 27 26 25 24 24 25 26 25 25 26 27 28 28 27 26 26 25 25 26 26 26 26 26 26 26 26 25 26 27 27 26
23 24 27 26 26 27 28 27 28 27 27 26 26 27 28 27 26 26 26 26 26 26 26 26 26 26 26 26 25 25 25 26 26 27 27 27 27 27 26 26 26 27 27 27
23 24 25 25 25 26 27 28 27 28 29 28 26 26 27 28 28 27 28 28 28 28 28 27 27 26 26 26 25 26 26 27 27 27 27 27 27 27 27 26 26 26 27 27
23 24 25 24 25 26 27 28 28 28 28 28 28 27 26 27 28 29 29 29 30 29 28 28 28 27 26 26 26 27 27 28 28 28 27 28 28 28 28 27 27 27 27 27
24 25 25 24 25 26 27 28 28 28 27 27 27 27 27 27 28 28 29 28 28 27 27 28 28 27 28 28 27 28 28 28 28 28 28 29 29 28 27 28 27 27 27 27
22 24 23 21 23 25 26 27 26 27 27 27 28 28 29 28 28 28 28 29 29 28 28 28 27 27 28 28 28 27 28 28 28 28 27 27 28 27 27 27 27 27 26 26
19 21 21 21 22 23 23 24 25 27 28 29 29 29 30 30 29 29 28 28 29 28 28 28 28 28 29 29 28 28 28 28 27 27 26 26 26 26 26 26 26 26 26 26
18 19 20 21 22 23 24 24 24 25 26 28 29 29 29 29 29 29 29 29 28 29 29 28 28 28 29 29 29 28 28 28 27 26 25 25 26 26 26 26 26 26 26 26
18 18 19 21 22 23 24 24 24 25 26 27 27 28 28 29 29 29 30 30 30 30 30 29 29 29 29 29 29 29 29 28 27 26 26 26 26 26 26 26 26 27 27 26
16 17 18 19 20 21 23 23 24 25 26 26 27 26 26 27 28 29 29 30 30 31 30 29 29 29 29 30 29 28 28 27 27 27 26 26 27 27 26 26 26 26 26 27
16 16 17 18 19 21 22 22 23 24 24 24 25 25 26 26 26 27 28 28 29 29 29 29 29 29 30 29 29 28 28 27 27 27 27 27 27 27 27 27 27 27 27 27
16 16 17 17 19 19 20 21 21 22 23 24 24 24 25 25 25 26 26 27 28 29 29 29 28 28 29 29 29 29 28 27 27 27 27 27 27 28 28 27 27 27 28 28
16 16 16 17 17 18 18 19 20 20 21 21 22 23 24 24 25 25 25 25 25 27 28 28 28 28 29 29 29 28 27 27 27 27 27 27 28 28 28 28 27 27 27 28
16 17 17 17 17 18 19 19 20 20 20 20 20 21 23 23 24 24 24 24 24 24 25 25 26 27 28 28 29 29 28 28 27 26 26 26 27 27 27 28 28 28 28 28
16 17 18 18 18 19 19 19 18 18 19 19 19 20 21 22 22 22 23 24 24 24 25 25 25 25 26 27 27 28 27 27 27 27 26 26 27 27 27 27 28 27 27 27
16 16 16 17 18 18 18 18 18 17 17 17 17 18 19 20 21 22 23 23 24 24 24 24 24 24 25 25 26 26 26 26 26 26 26 27 27 26 26 26 27 27 26 26
15 15 16 16 16 16 16 16 17 16 16 16 16 16 17 18 19 19 21 22 23 23 24 24 24 24 24 24 25 26 26 26 26 26 26 26 26 26 26 26 26 26 26 26
15 15 15 15 15 15 15 15 16 17 16 17 17 17 16 17 18 19 20 21 21 22 22 22 23 23 23 24 25 26 26 26 26 26 26 26 26 26 25 26 26 26 26 26
15 15 15 15 15 16 16 16 16 16 17 17 18 17 17 18 18 19 19 20 21 21 21 22 22 23 23 24 24 24 25 25 25 25 25 25 25 25 25 25 25 25 25 25
15 15 16 16 16 16 16 16 16 17 17 18 18 18 18 17 18 18 19 20 20 20 20 21 22 23 23 23 23 24 24 25 25 25 25 25 25 25 24 24 24 24 24 25
15 15 15 15 15 15 16 16 16 16 17 17 17 17 17 16 16 17 17 18 19 20 20 20 20 21 21 22 23 23 24 24 24 24 24 24 24 24 24 24 24 24 25 25
15 15 14 14 14 15 15 16 16 16 16 15 15 15 15 15 15 15 16 17 17 18 19 20 21 21 22 22 23 23 23 23 23 23 23 23 23 24 24 24 25 24 24 25
15 14 14 13 13 14 15 15 15 15 14 14 14 14 14 14 15 16 16 17 17 17 18 18 19 20 21 22 22 22 22 22 21 22 22 23 23 23 23 24 24 24 24 24
14 14 13 14 14 14 14 14 14 14 14 14 15 15 14 14 14 15 16 16 16 16 17 17 18 18 18 18 19 19 19 19 19 20 20 21 22 22 23 23 24 24 23 23
15 15 14 14 14 14 14 14 14 14 14 14 15 15 15 15 15 14 14 15 15 15 16 16 17 16 16 17 17 18 18 18 18 19 20 21 22 22 23 23 23 23 24 24
Wind_Direction
257 254 253 252 249 249 251 254 256 256 254 255 257 257 256 256 257 257 255 256 257 259 260 260 261 263 265 266 267 268 270 273 273 274 276 278 280 279 278 278 278 278 277 278
257 254 252 250 248 249 251 253 255 255 254 255 256 256 255 254 254 254 254 255 256 255 257 259 260 261 263 263 265 267 269 272 273 274 275 277 278 278 278 277 277 276 276 277
259 256 254 252 251 252 252 252 253 255 256 255 255 255 252 252 252 252 255 255 255 256 258 260 260 260 260 262 264 267 270 272 274 274 275 275 277 277 277 276 276 276 275 275
259 256 256 255 253 252 251 252 255 257 255 255 255 255 253 253 254 255 256 258 257 257 258 260 262 261 262 264 265 268 270 272 273 272 272 273 275 276 277 277 277 276 275 275
261 259 259 258 256 255 254 256 256 256 255 254 254 255 253 253 254 256 257 258 258 258 258 260 262 263 263 266 267 267 269 271 272 272 272 272 273 275 277 278 277 276 275 275
262 261 262 258 259 258 258 257 256 257 257 255 255 256 255 255 254 254 255 256 258 259 260 261 261 260 262 266 267 268 270 271 271 272 272 273 274 275 275 275 276 276 276 277
259 261 262 260 260 259 257 258 258 258 258 257 258 258 258 259 257 256 257 258 258 258 259 260 259 258 261 265 267 268 270 271 272 273 273 273 273 274 274 274 275 276 277 278
261 259 260 259 258 259 260 260 260 261 260 260 260 261 261 261 259 258 260 260 259 259 260 262 262 261 262 264 266 267 269 270 271 273 274 273 272 273 273 273 274 276 278 278
264 263 263 263 260 260 259 259 260 261 261 261 260 261 262 262 259 258 260 260 259 259 259 260 260 261 262 263 265 267 267 268 269 271 272 272 272 272 272 272 273 275 276 277
268 265 262 261 263 261 261 261 261 262 262 262 260 260 262 263 261 260 259 259 259 257 258 259 260 260 260 262 263 265 267 268 268 269 271 273 272 271 271 272 273 274 275 278
271 269 266 263 264 263 261 261 260 262 264 263 262 262 263 262 261 260 259 259 258 257 258 259 260 260 261 263 264 265 265 265 265 266 269 271 272 272 271 272 274 274 276 277
273 273 274 268 265 264 264 262 260 261 263 264 264 262 262 260 260 260 259 259 258 258 258 258 259 259 261 262 262 264 266 266 265 266 268 270 271 272 271 272 272 274 276 277
277 276 275 271 269 269 268 266 263 263 263 265 266 263 262 261 259 259 260 261 260 260 260 260 259 258 260 261 264 266 266 267 267 267 267 269 270 272 272 272 273 274 275 277
277 277 274 272 272 272 272 271 269 270 270 267 266 264 263 261 259 259 260 259 260 260 261 261 259 258 258 261 264 266 266 268 268 267 266 268 270 272 272 272 273 274 274 275
277 278 277 275 274 275 275 275 275 273 273 272 269 266 265 263 259 259 261 261 261 261 261 261 260 259 259 261 263 264 265 267 268 267 268 270 273 275 273 272 273 274 274 273
277 277 277 276 276 279 280 280 277 273 272 271 268 266 265 265 262 262 263 264 264 264 263 263 262 262 263 263 265 266 266 267 267 268 270 272 274 275 275 275 274 274 273 273
276 274 275 277 279 281 281 279 276 273 271 268 266 266 266 265 264 263 263 264 264 265 266 266 265 264 262 263 264 266 268 269 268 268 269 271 273 274 276 277 277 277 276 275
282 279 277 278 280 282 282 280 277 278 277 273 271 270 268 266 266 265 264 263 264 266 267 266 265 264 263 263 264 265 266 268 268 269 271 272 273 273 273 274 276 276 276 277
292 288 286 284 282 281 280 280 279 279 278 275 275 275 273 271 269 269 268 267 267 267 266 265 265 265 264 263 263 264 266 267 268 270 272 273 274 274 274 274 274 274 275 275
295 294 293 289 285 284 283 282 283 281 281 282 282 282 278 274 272 271 271 271 270 270 269 267 266 265 265 264 265 266 267 268 269 271 272 272 273 274 274 274 274 273 272 273
295 296 297 295 291 289 288 286 285 285 282 283 283 282 280 279 278 277 275 273 272 271 268 266 265 266 265 264 264 266 267 269 269 270 271 272 273 274 274 275 274 273 272 271
293 295 296 296 295 293 292 290 289 289 287 285 285 285 283 281 279 279 277 275 273 272 270 267 266 266 265 264 264 266 268 269 269 269 270 271 273 274 274 274 275 274 272 271
296 295 295 294 296 296 293 291 291 292 291 290 288 287 285 280 279 280 280 279 277 275 272 270 268 267 267 267 266 266 268 269 270 270 270 271 272 272 273 273 274 275 274 271
296 294 292 292 293 295 294 294 295 294 293 292 290 290 288 282 279 279 282 283 282 279 277 274 271 270 270 270 268 268 268 269 269 269 268 269 270 273 275 275 274 274 274 272
295 295 291 291 291 292 294 295 296 297 294 292 292 292 291 289 286 283 282 284 286 284 282 279 277 275 273 272 270 270 270 270 268 268 268 269 272 275 276 277 276 275 276 274
294 295 295 292 292 292 294 293 293 295 295 294 295 295 293 292 293 291 290 289 289 288 285 282 281 280 277 275 273 272 272 271 272 273 272 273 275 277 278 279 279 279 278 277
293 294 294 294 290 291 292 292 291 292 294 295 295 296 295 292 292 295 296 295 294 291 289 287 287 286 283 281 278 276 275 274 274 276 278 278 279 279 280 280 280 280 280 280
Height
5744 5745 5747 5749 5752 5754 5756 5758 5760 5763 5764 5767 5769 5771 5773 5775 5777 5778 5780 5781 5783 5783 5784 5785 5786 5786 5787 5788 5789 5790 5790 5790 5790 5790 5790 5790 5789 5789 5788 5788 5787 5787 5786 5785
5737 5738 5739 5741 5744 5747 5749 5751 5753 5755 5758 5760 5762 5764 5766 5767 5769 5771 5772 5774 5775 5776 5777 5778 5778 5779 5779 5780 5781 5782 5783 5783 5783 5783 5783 5783 5782 5781 5781 5780 5780 5779 5778 5778
5730 5732 5732 5735 5738 5740 5742 5744 5746 5748 5752 5753 5755 5757 5759 5760 5762 5763 5765 5766 5767 5768 5770 5770 5771 5771 5771 5772 5773 5774 5775 5775 5775 5775 5775 5775 5775 5774 5773 5773 5772 5771 5770 5769
5724 5726 5727 5732 5732 5733 5735 5737 5739 5741 5744 5746 5748 5749 5751 5753 5755 5756 5757 5759 5760 5761 5762 5763 5764 5764 5764 5765 5766 5767 5767 5767 5767 5767 5767 5767 5767 5766 5765 5765 5764 5764 5762 5762
5719 5719 5721 5724 5725 5726 5728 5730 5732 5734 5736 5738 5740 5742 5743 5745 5747 5748 5750 5750 5751 5753 5754 5755 5756 5756 5757 5757 5758 5758 5759 5759 5759 5759 5759 5759 5758 5758 5757 5757 5756 5756 5755 5754
5713 5713 5714 5718 5718 5719 5722 5723 5725 5727 5729 5731 5732 5734 5737 5738 5739 5740 5741 5742 5743 5744 5745 5746 5747 5748 5749 5749 5750 5751 5751 5751 5751 5751 5751 5751 5750 5750 5749 5749 5748 5748 5747 5746
5706 5706 5707 5710 5711 5713 5716 5718 5719 5720 5722 5723 5725 5727 5729 5729 5730 5731 5732 5733 5734 5736 5737 5737 5738 5739 5740 5741 5741 5742 5742 5742 5743 5743 5742 5742 5741 5741 5740 5740 5740 5739 5739 5737
5700 5700 5703 5703 5705 5707 5708 5709 5711 5712 5714 5716 5717 5718 5720 5721 5722 5723 5724 5725 5726 5727 5728 5729 5730 5731 5732 5733 5733 5733 5734 5734 5734 5734 5733 5732 5733 5732 5732 5732 5732 5731 5730 5729
5695 5696 5696 5696 5698 5699 5700 5701 5703 5705 5706 5707 5709 5710 5711 5712 5713 5714 5715 5716 5717 5718 5720 5720 5721 5722 5723 5724 5725 5725 5725 5726 5725 5725 5725 5724 5724 5724 5724 5724 5724 5724 5723 5722
5689 5689 5689 5690 5691 5692 5692 5693 5695 5696 5697 5699 5700 5701 5702 5703 5704 5705 5706 5707 5708 5710 5711 5712 5713 5713 5714 5715 5716 5716 5717 5717 5717 5717 5717 5717 5716 5716 5716 5716 5716 5715 5715 5714
5683 5683 5683 5683 5684 5685 5685 5686 5687 5688 5689 5690 5691 5693 5693 5694 5695 5696 5697 5698 5700 5701 5702 5703 5704 5705 5706 5706 5707 5707 5708 5708 5709 5709 5709 5709 5709 5708 5708 5708 5707 5707 5707 5706
5678 5677 5677 5677 5677 5678 5679 5679 5680 5681 5682 5683 5683 5684 5684 5685 5686 5687 5688 5689 5690 5692 5693 5694 5695 5696 5697 5698 5699 5699 5699 5700 5700 5701 5701 5701 5701 5700 5700 5700 5699 5699 5698 5698
5673 5672 5672 5672 5672 5672 5672 5673 5673 5674 5675 5675 5675 5676 5676 5676 5677 5678 5679 5680 5682 5683 5684 5685 5686 5688 5689 5689 5690 5690 5691 5691 5692 5692 5692 5693 5693 5692 5692 5692 5691 5691 5690 5689
5668 5668 5667 5667 5667 5666 5666 5667 5667 5667 5667 5667 5667 5667 5668 5668 5669 5670 5671 5672 5673 5674 5676 5677 5678 5679 5680 5681 5681 5682 5682 5682 5683 5683 5684 5684 5684 5684 5684 5683 5683 5682 5682 5681
5664 5663 5663 5662 5662 5661 5661 5661 5660 5660 5660 5659 5660 5660 5660 5661 5662 5663 5664 5665 5665 5666 5668 5668 5669 5670 5671 5672 5673 5673 5674 5674 5675 5675 5676 5676 5676 5675 5675 5674 5674 5674 5673 5673
5660 5659 5658 5658 5657 5657 5656 5655 5654 5654 5653 5653 5652 5653 5653 5654 5654 5655 5656 5657 5658 5659 5660 5660 5661 5661 5662 5663 5664 5665 5665 5666 5666 5667 5667 5667 5667 5667 5666 5666 5665 5665 5665 5665
5655 5655 5654 5653 5652 5651 5650 5648 5648 5647 5647 5647 5646 5646 5646 5646 5647 5647 5648 5649 5650 5651 5652 5652 5653 5653 5654 5655 5656 5657 5657 5658 5658 5659 5659 5659 5659 5659 5658 5657 5657 5656 5656 5656
5651 5649 5648 5647 5646 5645 5644 5643 5642 5641 5641 5641 5640 5640 5640 5640 5640 5641 5641 5642 5643 5643 5644 5644 5644 5645 5646 5646 5647 5648 5649 5649 5650 5650 5650 5650 5650 5650 5650 5649 5649 5648 5648 5647
5646 5645 5644 5643 5641 5640 5639 5638 5637 5636 5636 5635 5635 5634 5634 5634 5634 5634 5634 5635 5635 5635 5636 5636 5637 5637 5638 5639 5639 5640 5641 5642 5642 5642 5642 5642 5642 5641 5641 5641 5640 5640 5640 5639
5641 5640 5639 5638 5637 5635 5634 5633 5632 5631 5631 5630 5630 5629 5628 5628 5628 5628 5628 5628 5628 5628 5628 5629 5629 5630 5630 5631 5632 5632 5633 5633 5634 5634 5634 5634 5634 5633 5633 5632 5632 5632 5631 5631
5637 5636 5635 5634 5632 5631 5630 5629 5628 5627 5626 5625 5624 5623 5623 5622 5622 5621 5621 5621 5621 5620 5620 5621 5622 5622 5623 5623 5624 5624 5625 5625 5625 5626 5626 5625 5625 5625 5625 5624 5624 5623 5623 5623
5633 5632 5630 5629 5628 5626 5625 5624 5623 5622 5621 5620 5619 5618 5617 5616 5616 5615 5615 5615 5614 5614 5613 5614 5614 5615 5615 5615 5616 5617 5617 5617 5617 5618 5618 5618 5617 5617 5617 5616 5616 5615 5615 5615
5628 5627 5626 5625 5623 5622 5621 5619 5618 5617 5616 5615 5614 5612 5611 5610 5610 5610 5609 5609 5608 5607 5607 5607 5607 5607 5608 5608 5608 5609 5609 5609 5609 5609 5610 5610 5609 5609 5609 5609 5608 5608 5607 5606
5624 5623 5621 5620 5619 5617 5616 5615 5614 5612 5611 5610 5609 5607 5606 5605 5605 5604 5604 5603 5602 5601 5601 5600 5600 5600 5600 5601 5601 5601 5601 5602 5602 5602 5602 5602 5602 5601 5601 5601 5600 5600 5599 5598
5620 5618 5617 5616 5615 5613 5612 5611 5610 5608 5607 5605 5604 5603 5602 5601 5600 5599 5598 5598 5597 5596 5595 5594 5594 5593 5593 5593 5593 5594 5594 5594 5594 5594 5594 5594 5594 5594 5593 5593 5592 5591 5590 5590
5616 5614 5613 5612 5610 5609 5608 5607 5605 5604 5603 5601 5600 5599 5598 5597 5595 5594 5593 5593 5591 5590 5589 5588 5588 5587 5587 5587 5587 5587 5587 5588 5587 5587 5587 5587 5587 5587 5586 5585 5585 5584 5583 5582
5611 5610 5608 5607 5606 5604 5603 5602 5601 5600 5598 5597 5596 5594 5593 5592 5591 5590 5589 5588 5587 5585 5584 5584 5583 5582 5582 5581 5581 5581 5581 5581 5581 5581 5581 5581 5580 5579 5579 5578 5577 5576 5575 5574